STSAT-2C                
1 39068U 13003A   19265.51975418  .00153762  77323-5  33260-3 0  9994
2 39068  80.1653  70.0347 0092163 153.2170 207.3900 15.90922693360402
KSLV-1 R/B              
1 39069U 13003B   19264.14852501  .00005655 -20989-6  77464-4 0  9990
2 39069  80.2330 275.1477 0514722 286.1898  68.3263 14.74984189349640